Change the Weather History Date:

Saturday, January 25, 2014

  Actual Average Record
Temperature  
Mean Temperature 40 °F -  
Max Temperature 48 °F 36 °F 63 °F (1968)
Min Temperature 32 °F 14 °F -8 °F (1950)
Degree Days  
Heating Degree Days 25    
Moisture  
Dew Point 30 °F    
Average Humidity 69    
Maximum Humidity 93    
Minimum Humidity 54    
Precipitation  
Precipitation 0.00 in - - ()
Sea Level Pressure  
Sea Level Pressure 29.89 in    
Wind  
Wind Speed 15 mph (WNW)    
Max Wind Speed 26 mph    
Max Gust Speed 36 mph    
Visibility 10 miles    
Events      
Averages and records for this station are not official NWS values.
T = Trace of Precipitation, MM = Missing Value Source: NWS Daily Summary

Daily Weather History Graph

Daily Weather History Graph

Search for Another Location

Airport or City:

Trip Planner

Search our weather history database for the weather conditions in past years. The results will help you decide how hot, cold, wet, or windy it might be!

Date:

Astronomy

Jan. 25, 2014 Rise Set
Actual Time 7:46 AM CST 5:39 PM CST
Civil Twilight 7:17 AM CST 6:08 PM CST
Nautical Twilight 6:44 AM CST 6:42 PM CST
Astronomical Twilight 6:11 AM CST 7:14 PM CST
Moon 2:20 AM CST (1/25) 12:40 PM CST (1/25)
Length of Visible Light 10h 51m
Length of Day
9h 52m
Waning Crescent, 34% of the Moon is Illuminated
Jan 25
Waning Crescent
Jan 30
New
Feb 6
First Quarter
Feb 14
Full
Feb 22
Last Quarter

Hourly Weather History & Observations

Time (CST) Temp. Windchill Dew Point Humidity Pressure Visibility Wind Dir Wind Speed Gust Speed Precip Events Conditions
12:15 AM 48.2 °F - 32.0 °F 54% 29.84 in 10.0 mi NNW 21.9 mph 27.6 mph N/A   Overcast
12:35 AM 46.4 °F 39.2 °F 32.0 °F 57% 29.85 in 10.0 mi NW 18.4 mph 25.3 mph N/A   Overcast
12:55 AM 46.4 °F 38.7 °F 32.0 °F 57% 29.86 in 10.0 mi NNW 20.7 mph 33.4 mph N/A   Overcast
1:15 AM 44.6 °F 37.4 °F 32.0 °F 61% 29.86 in 10.0 mi NNW 16.1 mph - N/A   Mostly Cloudy
1:35 AM 44.6 °F 38.8 °F 33.8 °F 66% 29.86 in 10.0 mi NNW 11.5 mph 21.9 mph N/A   Mostly Cloudy
1:55 AM 44.6 °F 38.1 °F 33.8 °F 66% 29.87 in 10.0 mi NNW 13.8 mph 19.6 mph N/A   Overcast
2:15 AM 44.6 °F 38.1 °F 33.8 °F 66% 29.87 in 10.0 mi NW 13.8 mph 18.4 mph N/A   Overcast
2:35 AM 44.6 °F 37.2 °F 33.8 °F 66% 29.88 in 10.0 mi NW 17.3 mph 20.7 mph N/A   Overcast
2:55 AM 44.6 °F 36.6 °F 33.8 °F 66% 29.88 in 10.0 mi NW 19.6 mph 24.2 mph N/A   Overcast
3:15 AM 42.8 °F 34.8 °F 33.8 °F 70% 29.88 in 10.0 mi WNW 17.3 mph - N/A   Overcast
3:35 AM 41.0 °F 32.2 °F 33.8 °F 76% 29.89 in 10.0 mi WNW 18.4 mph 23.0 mph N/A   Overcast
3:55 AM 41.0 °F 32.5 °F 32.0 °F 70% 29.89 in 10.0 mi NW 17.3 mph 23.0 mph N/A   Overcast
4:15 AM 41.0 °F 33.5 °F 32.0 °F 70% 29.89 in 10.0 mi NW 13.8 mph 21.9 mph N/A   Overcast
4:35 AM 41.0 °F 33.9 °F 32.0 °F 70% 29.89 in 10.0 mi WNW 12.7 mph - N/A   Overcast
4:55 AM 41.0 °F 33.5 °F 33.8 °F 76% 29.89 in 10.0 mi WNW 13.8 mph 19.6 mph N/A   Overcast
5:15 AM 42.8 °F 34.5 °F 35.6 °F 76% 29.89 in 10.0 mi WNW 18.4 mph - N/A   Overcast
5:35 AM 42.8 °F 34.8 °F 35.6 °F 76% 29.89 in 10.0 mi WNW 17.3 mph - N/A   Overcast
5:55 AM 41.0 °F 32.5 °F 35.6 °F 81% 29.90 in 10.0 mi WNW 17.3 mph - N/A   Overcast
6:15 AM 42.8 °F 32.9 °F 35.6 °F 76% 29.91 in 10.0 mi NW 26.5 mph 35.7 mph N/A   Overcast
6:35 AM 42.8 °F 34.5 °F 35.6 °F 76% 29.91 in 10.0 mi NW 18.4 mph 28.8 mph N/A   Overcast
6:55 AM 42.8 °F 34.5 °F 33.8 °F 70% 29.92 in 10.0 mi NW 18.4 mph 29.9 mph N/A   Overcast
7:15 AM 42.8 °F 34.0 °F 32.0 °F 66% 29.93 in 10.0 mi NW 20.7 mph 26.5 mph N/A   Overcast
7:35 AM 41.0 °F 32.2 °F 32.0 °F 70% 29.95 in 10.0 mi NW 18.4 mph 25.3 mph N/A   Overcast
7:55 AM 41.0 °F 31.6 °F 33.8 °F 76% 29.97 in 10.0 mi North 20.7 mph 32.2 mph N/A   Overcast
8:15 AM 39.2 °F 29.6 °F 33.8 °F 81% 29.98 in 10.0 mi North 19.6 mph 27.6 mph N/A   Overcast
8:35 AM 37.4 °F 28.5 °F 32.0 °F 81% 30.00 in 10.0 mi North 15.0 mph 25.3 mph N/A   Overcast
8:55 AM 35.6 °F 24.2 °F 32.0 °F 87% 30.03 in 10.0 mi NNE 21.9 mph 29.9 mph N/A   Overcast
9:15 AM 33.8 °F 22.8 °F 32.0 °F 93% 30.03 in 10.0 mi North 18.4 mph - N/A   Overcast
9:35 AM 33.8 °F 21.9 °F 28.4 °F 81% 30.04 in 10.0 mi North 21.9 mph 26.5 mph N/A   Overcast
9:55 AM 32.0 °F 20.8 °F 26.6 °F 80% 30.05 in 10.0 mi North 17.3 mph 29.9 mph N/A   Mostly Cloudy
10:15 AM 32.0 °F 22.5 °F 28.4 °F 87% 30.05 in 10.0 mi North 12.7 mph - N/A   Mostly Cloudy
10:35 AM 33.8 °F 25.8 °F 26.6 °F 75% 30.07 in 10.0 mi NNW 10.4 mph 21.9 mph N/A   Overcast
10:55 AM 33.8 °F 26.4 °F 26.6 °F 75% 30.07 in 10.0 mi North 9.2 mph - N/A   Overcast
11:15 AM 35.6 °F 29.2 °F 26.6 °F 70% 30.08 in 10.0 mi NNW 8.1 mph - N/A   Overcast
11:35 AM 35.6 °F 27.5 °F 26.6 °F 70% 30.08 in 10.0 mi North 11.5 mph 18.4 mph N/A   Overcast
11:55 AM 35.6 °F 28.0 °F 26.6 °F 70% 30.07 in 10.0 mi NNW 10.4 mph - N/A   Overcast
12:15 PM 35.6 °F 27.5 °F 26.6 °F 70% 30.06 in 10.0 mi North 11.5 mph 16.1 mph N/A   Overcast
12:35 PM 35.6 °F 28.6 °F 26.6 °F 70% 30.05 in 10.0 mi NNW 9.2 mph - N/A   Overcast
12:55 PM 35.6 °F 30.7 °F 26.6 °F 70% 30.04 in 10.0 mi NNW 5.8 mph - N/A   Overcast
1:15 PM 35.6 °F 29.9 °F 26.6 °F 70% 30.04 in 10.0 mi North 6.9 mph - N/A   Overcast
1:35 PM 37.4 °F 31.4 °F 24.8 °F 60% 30.03 in 10.0 mi NNW 8.1 mph - N/A   Mostly Cloudy
1:55 PM 37.4 °F 32.8 °F 24.8 °F 60% 30.02 in 10.0 mi NNW 5.8 mph - N/A   Overcast
2:15 PM 37.4 °F 31.4 °F 24.8 °F 60% 29.99 in 10.0 mi WNW 8.1 mph - N/A   Overcast
2:35 PM 39.2 °F 35.0 °F 26.6 °F 61% 29.98 in 10.0 mi NW 5.8 mph - N/A   Partly Cloudy
2:55 PM 39.2 °F 35.9 °F 26.6 °F 61% 29.96 in 10.0 mi NW 4.6 mph - N/A   Clear
3:15 PM 39.2 °F 37.0 °F 26.6 °F 61% 29.95 in 10.0 mi NW 3.5 mph - N/A   Clear
3:35 PM 41.0 °F - 26.6 °F 57% 29.94 in 10.0 mi Calm Calm - N/A   Clear
3:55 PM 39.2 °F - 26.6 °F 61% 29.92 in 10.0 mi Calm Calm - N/A   Clear
4:15 PM 41.0 °F 37.1 °F 26.6 °F 57% 29.92 in 10.0 mi SW 5.8 mph - N/A   Clear
4:35 PM 41.0 °F 36.4 °F 26.6 °F 57% 29.91 in 10.0 mi SW 6.9 mph - N/A   Clear
4:55 PM 41.0 °F 37.1 °F 26.6 °F 57% 29.89 in 10.0 mi South 5.8 mph - N/A   Mostly Cloudy
5:15 PM 41.0 °F 36.4 °F 26.6 °F 57% 29.88 in 10.0 mi SSW 6.9 mph - N/A   Overcast
5:35 PM 39.2 °F 34.2 °F 26.6 °F 61% 29.87 in 10.0 mi South 6.9 mph - N/A   Mostly Cloudy
5:55 PM 37.4 °F 31.4 °F 26.6 °F 65% 29.85 in 10.0 mi South 8.1 mph - N/A   Partly Cloudy
6:15 PM 35.6 °F 29.2 °F 24.8 °F 65% 29.84 in 10.0 mi South 8.1 mph - N/A   Clear
6:35 PM 35.6 °F 28.6 °F 26.6 °F 70% 29.83 in 10.0 mi South 9.2 mph - N/A   Clear
6:55 PM 35.6 °F 28.0 °F 26.6 °F 70% 29.81 in 10.0 mi South 10.4 mph - N/A   Clear
7:15 PM 33.8 °F 24.8 °F 26.6 °F 75% 29.79 in 10.0 mi South 12.7 mph - N/A   Clear
7:35 PM 35.6 °F 26.2 °F 26.6 °F 70% 29.78 in 10.0 mi SSW 15.0 mph - N/A   Clear
7:55 PM 35.6 °F 26.2 °F 26.6 °F 70% 29.76 in 10.0 mi SSW 15.0 mph - N/A   Clear
8:15 PM 35.6 °F 27.1 °F 26.6 °F 70% 29.73 in 10.0 mi SSW 12.7 mph - N/A   Clear
9:15 PM 37.4 °F 28.5 °F 28.4 °F 70% 29.68 in 10.0 mi SW 15.0 mph 19.6 mph N/A   Clear
9:35 PM 39.2 °F 30.2 °F 30.2 °F 70% 29.66 in 10.0 mi SW 17.3 mph - N/A   Clear
9:55 PM 41.0 °F 31.6 °F 32.0 °F 70% 29.64 in 10.0 mi SW 20.7 mph 27.6 mph N/A   Clear
10:15 PM 42.8 °F 34.0 °F 32.0 °F 66% 29.63 in 10.0 mi SW 20.7 mph 26.5 mph N/A   Clear
10:35 PM 42.8 °F 34.3 °F 32.0 °F 66% 29.63 in 10.0 mi SW 19.6 mph 27.6 mph N/A   Clear
10:55 PM 42.8 °F 35.1 °F 32.0 °F 66% 29.63 in 10.0 mi WSW 16.1 mph 25.3 mph N/A   Clear
11:15 PM 42.8 °F 34.5 °F 32.0 °F 66% 29.62 in 10.0 mi WSW 18.4 mph 21.9 mph N/A   Clear
11:35 PM 42.8 °F 35.4 °F 30.2 °F 61% 29.62 in 10.0 mi WSW 15.0 mph - N/A   Clear
11:55 PM 42.8 °F 35.1 °F 30.2 °F 61% 29.61 in 10.0 mi WSW 16.1 mph - N/A   Clear